| time (UTC) | temp C | wind direction | speed KPH | gust KPH | rain 1hr cm | rain 24hr cm | rain mn cm | humidity % | barometer mb |
| 20260505013053 | 21 | 199 | 3.2 | 9.7 | 0.00 | 0.03 | 0.03 | 68 | 1017.1 |
| 20260505010053 | 21 | 216 | 3.2 | 11.3 | 0.00 | 0.03 | 0.03 | 68 | 1017.5 |
| 20260505003054 | 20 | 164 | 1.6 | 8.0 | 0.00 | 0.03 | 0.03 | 74 | 1017.8 |
| 20260505000053 | 19 | 264 | 6.4 | 14.5 | 0.00 | 0.03 | 0.03 | 80 | 1018.1 |
| 20260504233053 | 16 | 274 | 3.2 | 11.3 | 0.00 | 0.03 | 0.03 | 98 | 1018.4 |
| 20260504230053 | 15 | 211 | 0.0 | 6.4 | 0.00 | 0.03 | 0.03 | 99 | 1018.5 |
| 20260504223054 | 15 | 109 | 0.0 | 1.6 | 0.00 | 0.03 | 0.03 | 99 | 1018.5 |
| 20260504220053 | 15 | 0 | 0.0 | 0.0 | 0.00 | 0.03 | 0.03 | 100 | 1018.3 |
| 20260504213053 | 13 | 0 | 0.0 | 0.0 | 0.00 | 0.03 | 0.03 | 99 | 1018.0 |
| 20260504210054 | 12 | 0 | 0.0 | 0.0 | 0.00 | 0.03 | 0.03 | 99 | 1017.6 |
| 20260504203053 | 12 | 0 | 0.0 | 0.0 | 0.00 | 0.05 | 0.03 | 98 | 1017.3 |
| 20260504200053 | 12 | 0 | 0.0 | 0.0 | 0.00 | 0.05 | 0.03 | 98 | 1017.4 |
| 20260504193053 | 12 | 0 | 0.0 | 0.0 | 0.03 | 0.05 | 0.03 | 98 | 1016.9 |
| 20260504190054 | 13 | 0 | 0.0 | 0.0 | 0.03 | 0.05 | 0.03 | 99 | 1016.6 |
| 20260504183053 | 13 | 0 | 0.0 | 0.0 | 0.00 | 0.03 | 0.00 | 98 | 1016.6 |
| 20260504180053 | 13 | 0 | 0.0 | 0.0 | 0.00 | 0.03 | 0.00 | 98 | 1016.6 |
| 20260504173053 | 13 | 0 | 0.0 | 0.0 | 0.00 | 0.03 | 0.00 | 98 | 1016.4 |
| 20260504043053 | 21 | 141 | 4.8 | 17.7 | 0.00 | 0.03 | 0.03 | 58 | 1016.3 |
| 20260504040053 | 22 | 126 | 3.2 | 14.5 | 0.00 | 0.03 | 0.03 | 54 | 1016.4 |
| 20260504033054 | 21 | 2 | 4.8 | 14.5 | 0.00 | 0.03 | 0.03 | 55 | 1016.6 |
| 20260504030053 | 21 | 15 | 3.2 | 14.5 | 0.00 | 0.03 | 0.03 | 56 | 1017.0 |
| 20260504023053 | 21 | 326 | 6.4 | 16.1 | 0.00 | 0.03 | 0.03 | 59 | 1017.4 |
| 20260504020053 | 20 | 320 | 6.4 | 16.1 | 0.00 | 0.03 | 0.03 | 61 | 1018.1 |